Location: Newark
(54.4000°N, 32.4500°E)
Time: 00:09:54
(UTC+00:00)

Envisat - Pass Details

Date: 18 January 2020
Orbit: 764 x 766 km, 98.1° (Epoch: 24 February)

Event Time Altitude Azimuth Distance (km) Brightness Sun altitude
Rises 03:48:29 0° 21° (NNE) 3,248 6.4 -18.4°
Reaches altitude 10° 03:51:05 10° 32° (NNE) 2,316 5.7 -18.0°
Maximum altitude 03:55:33 30° 93° (E) 1,348 5.0 -17.4°
Drops below altitude 10° 04:00:00 10° 154° (SSE) 2,300 6.0 -16.7°
Sets 04:02:34 0° 165° (SSE) 3,221 6.6 -16.4°
